TimeEDT,TemperatureF,Dew PointF,Humidity,Sea Level PressureIn,VisibilityMPH,Wind Direction,Wind SpeedMPH,Gust SpeedMPH,PrecipitationIn,Events,Conditions,WindDirDegrees,DateUTC
12:58 AM,75.0,72.7,92,30.02,10.0,SSE,8.1,-,N/A,,Scattered Clouds,160,2013-07-10 04:58:00
1:58 AM,75.2,73.2,94,30.00,10.0,SSE,10.4,-,N/A,,Scattered Clouds,160,2013-07-10 05:58:00
2:58 AM,76.1,74.5,95,29.98,10.0,South,9.2,-,N/A,,Scattered Clouds,180,2013-07-10 06:58:00
3:58 AM,75.7,75.2,98,29.97,10.0,South,8.1,-,N/A,,Mostly Cloudy,190,2013-07-10 07:58:00
4:58 AM,76.1,75.7,99,29.97,10.0,South,11.5,-,N/A,,Clear,190,2013-07-10 08:58:00
5:58 AM,76.5,76.1,99,29.98,10.0,South,11.5,-,N/A,,Mostly Cloudy,190,2013-07-10 09:58:00
6:58 AM,77.0,76.6,99,29.98,10.0,SSW,10.4,-,N/A,,Scattered Clouds,200,2013-07-10 10:58:00
7:58 AM,78.8,77.0,94,29.97,10.0,SSW,13.8,-,N/A,,Clear,210,2013-07-10 11:58:00
8:58 AM,80.8,77.0,88,29.98,10.0,SSW,12.7,-,N/A,,Partly Cloudy,210,2013-07-10 12:58:00
9:58 AM,83.5,77.2,81,29.97,10.0,WSW,6.9,-,N/A,,Clear,250,2013-07-10 13:58:00
10:56 AM,86.0,77.0,74,29.97,10.0,SSW,10.4,-,N/A,,Mostly Cloudy,210,2013-07-10 14:56:00
11:56 AM,86.0,75.2,70,29.95,10.0,WSW,9.2,-,N/A,,Mostly Cloudy,250,2013-07-10 15:56:00
12:56 PM,89.6,73.4,59,29.95,10.0,WSW,10.4,16.1,N/A,,Mostly Cloudy,250,2013-07-10 16:56:00
1:56 PM,89.6,73.4,59,29.93,10.0,West,10.4,-,N/A,,Mostly Cloudy,270,2013-07-10 17:56:00
2:55 PM,88.2,75.0,65,29.90,10.0,SSW,11.5,-,N/A,,Mostly Cloudy,200,2013-07-10 18:55:00
3:55 PM,88.5,73.4,61,29.88,10.0,South,12.7,-,N/A,,Partly Cloudy,190,2013-07-10 19:55:00
3:58 PM,88.5,73.4,61,29.89,10.0,SSW,13.8,-,N/A,,Partly Cloudy,210,2013-07-10 19:58:00
4:58 PM,88.2,74.7,64,29.87,10.0,SW,9.2,-,N/A,,Partly Cloudy,230,2013-07-10 20:58:00
5:58 PM,86.2,75.9,71,29.87,10.0,South,15.0,-,N/A,,Mostly Cloudy,190,2013-07-10 21:58:00
6:58 PM,85.1,75.7,73,29.88,10.0,SSW,11.5,-,N/A,,Partly Cloudy,200,2013-07-10 22:58:00
7:58 PM,83.7,74.5,74,29.89,10.0,South,11.5,-,N/A,,Partly Cloudy,190,2013-07-10 23:58:00
8:58 PM,81.9,74.5,78,29.90,10.0,SSW,10.4,-,N/A,,Overcast,200,2013-07-11 00:58:00
9:58 PM,81.1,73.6,78,29.90,10.0,SW,13.8,-,N/A,,Overcast,230,2013-07-11 01:58:00
10:58 PM,79.2,70.9,76,29.87,10.0,SSW,13.8,-,N/A,,Overcast,210,2013-07-11 02:58:00
11:58 PM,76.1,72.9,90,29.87,10.0,SSW,12.7,-,N/A,,Mostly Cloudy,200,2013-07-11 03:58:00